Tracking 30995 objects as of 5-Jul-2025
HD Live streaming from Space Station
objects crossing your sky now

NAVSTAR 69 (USA 248)

Track NAVSTAR 69 (USA 248) now!
NAVSTAR 69 (USA 248) is classified as:


NORAD ID: 39533
Int'l Code: 2014-008A
Perigee: 19,980.0 km
Apogee: 20,398.5 km
Inclination: 53.6 °
Period: 718.0 minutes
Semi major axis: 26560 km
RCS: Unknown
Launch date: February 21, 2014
Source: United States (US)
Launch site: AIR FORCE EASTERN TEST RANGE (AFETR)
PRN: 30

USA 248, known also as GPS 2F-5 will become a primary broadcasting satellite in the constellation when it becomes operational by May 2014.
Your satellite tracking list
Your tracking list is empty




NASA's NSSDC Master Catalog

Two Line Element Set (TLE):
1 39533U 14008A   25185.17546424  .00000077  00000-0  00000-0 0  9994
2 39533  53.6185 163.5103 0078797 226.1582 133.1768  2.00564795 82700
Source of the keplerian elements: AFSPC